, LA

(GMT )
East Cameron 278

Weather History for KEHC - February, 2014

Change the Weather History Date:

Saturday, February 8, 2014

  Actual Average Record
Temperature  
Mean Temperature 56 °F -  
Max Temperature 62 °F - - ()
Min Temperature 51 °F - - ()
Degree Days  
Heating Degree Days 8    
Growing Degree Days 6 (Base 50)    
Moisture  
Dew Point 54 °F    
Average Humidity 87    
Maximum Humidity 94    
Minimum Humidity 77    
Precipitation  
Precipitation 0.00 in - - ()
Sea Level Pressure  
Sea Level Pressure 30.15 in    
Wind  
Wind Speed 17 mph (ENE)    
Max Wind Speed 24 mph    
Max Gust Speed 25 mph    
Visibility 6 miles    
Events      
T = Trace of Precipitation, MM = Missing Value Source: NWS Daily Summary

Daily Weather History Graph

Daily Weather History Graph

Search for Another Location

Airport or City:

Trip Planner

Search our weather history database for the weather conditions in past years. The results will help you decide how hot, cold, wet, or windy it might be!

Date:

Astronomy

Feb. 08, 2014 Rise Set
Actual Time 6:54 AM CST 5:56 PM CST
Civil Twilight 6:30 AM CST 6:21 PM CST
Nautical Twilight 6:02 AM CST 6:49 PM CST
Astronomical Twilight 5:35 AM CST 7:16 PM CST
Moon 12:58 PM CST (2/8) 2:01 AM CST (2/8)
Length of Visible Light 11h 50m
Length of Day
11h 01m
Waxing Gibbous, 69% of the Moon is Illuminated
Feb 8
Waxing Gibbous
Feb 14
Full
Feb 22
Last Quarter
Mar 1
New
Mar 8
First Quarter

Hourly Weather History & Observations

Time (CST) Temp. Dew Point Humidity Pressure Visibility Wind Dir Wind Speed Gust Speed Precip Events Conditions
12:15 AM 55.4 °F 51.8 °F 88% 30.15 in 4.0 mi ENE 21.9 mph - N/A   Mist
12:35 AM 55.4 °F 51.8 °F 88% 30.14 in 4.0 mi ENE 20.7 mph - N/A   Mist
12:55 AM 55.4 °F 51.8 °F 88% 30.14 in 5.0 mi NE 21.9 mph - N/A   Mist
1:15 AM 55.4 °F 50.0 °F 82% 30.14 in 5.0 mi NE 21.9 mph - N/A   Haze
1:35 AM 53.6 °F 50.0 °F 88% 30.13 in 6.0 mi NE 23.0 mph - N/A   Haze
1:55 AM 53.6 °F 50.0 °F 88% 30.13 in 6.0 mi NE 21.9 mph - N/A   Haze
2:15 AM 53.6 °F 48.2 °F 82% 30.13 in 6.0 mi NE 19.6 mph 25.3 mph N/A   Haze
2:35 AM 53.6 °F 48.2 °F 82% 30.13 in 7.0 mi NE 19.6 mph - N/A   Unknown
2:55 AM 53.6 °F 48.2 °F 82% 30.14 in 7.0 mi NE 19.6 mph - N/A   Unknown
3:15 AM 53.6 °F 48.2 °F 82% 30.15 in 7.0 mi NE 17.3 mph - N/A   Unknown
3:35 AM 53.6 °F 48.2 °F 82% 30.15 in 7.0 mi NNE 17.3 mph - N/A   Unknown
3:55 AM 51.8 °F 48.2 °F 88% 30.15 in 4.0 mi NE 19.6 mph - N/A   Haze
4:15 AM 51.8 °F 48.2 °F 88% 30.14 in 5.0 mi NE 19.6 mph - N/A   Mist
4:35 AM 51.8 °F 48.2 °F 88% 30.14 in 6.0 mi NE 21.9 mph - N/A   Mist
4:55 AM 51.8 °F 48.2 °F 88% 30.14 in 6.0 mi NE 21.9 mph - N/A   Mist
5:15 AM 51.8 °F 48.2 °F 88% 30.15 in 6.0 mi NE 21.9 mph - N/A   Mist
5:35 AM 51.8 °F 48.2 °F 88% 30.15 in 6.0 mi NE 21.9 mph - N/A   Mist
5:55 AM 51.8 °F 50.0 °F 94% 30.15 in 5.0 mi NE 20.7 mph - N/A   Mist
6:15 AM 53.6 °F 50.0 °F 88% 30.15 in 6.0 mi ENE 20.7 mph - N/A   Mist
6:35 AM 53.6 °F 50.0 °F 88% 30.16 in 5.0 mi NE 18.4 mph - N/A   Mist
6:55 AM 53.6 °F 50.0 °F 88% 30.16 in 4.0 mi ENE 20.7 mph - N/A   Mist
7:15 AM 53.6 °F 50.0 °F 88% 30.16 in 3.0 mi ENE 21.9 mph - N/A   Mist
7:35 AM 53.6 °F 51.8 °F 94% 30.15 in 3.0 mi East 24.2 mph - N/A   Mist
7:55 AM 53.6 °F 51.8 °F 94% 30.16 in 3.0 mi East 24.2 mph - N/A   Mist
8:15 AM 55.4 °F 51.8 °F 88% 30.17 in 4.0 mi East 23.0 mph - N/A   Mist
8:35 AM 55.4 °F 53.6 °F 94% 30.17 in 4.0 mi East 20.7 mph - N/A   Mist
8:55 AM 57.2 °F 53.6 °F 88% 30.18 in 4.0 mi East 18.4 mph - N/A   Mist
9:15 AM 57.2 °F 53.6 °F 88% 30.20 in 4.0 mi East 16.1 mph - N/A   Mist
9:35 AM 57.2 °F 53.6 °F 88% 30.21 in 5.0 mi ENE 12.7 mph - N/A   Mist
9:55 AM 57.2 °F 53.6 °F 88% 30.20 in 5.0 mi ENE 13.8 mph - N/A   Mist
10:15 AM 57.2 °F 53.6 °F 88% 30.20 in 4.0 mi ENE 13.8 mph - N/A   Mist
10:35 AM 59.0 °F 55.4 °F 88% 30.20 in 4.0 mi ENE 12.7 mph - N/A   Mist
10:55 AM 59.0 °F 55.4 °F 88% 30.20 in 4.0 mi NE 12.7 mph - N/A   Mist
11:15 AM 59.0 °F 55.4 °F 88% 30.20 in 4.0 mi NE 13.8 mph - N/A   Mist
11:35 AM 59.0 °F 55.4 °F 88% 30.20 in 4.0 mi NE 11.5 mph - N/A   Mist
11:55 AM 59.0 °F 55.4 °F 88% 30.19 in 4.0 mi NE 11.5 mph - N/A   Mist
12:15 PM 59.0 °F 53.6 °F 82% 30.19 in 3.0 mi NE 10.4 mph - N/A   Mist
12:35 PM 59.0 °F 55.4 °F 88% 30.17 in 2.5 mi NE 11.5 mph - N/A   Mist
12:55 PM 59.0 °F 55.4 °F 88% 30.16 in 5.0 mi ENE 10.4 mph - N/A   Haze
1:15 PM 59.0 °F 55.4 °F 88% 30.14 in 5.0 mi NE 12.7 mph - N/A   Haze
1:35 PM 60.8 °F 55.4 °F 82% 30.13 in 5.0 mi ENE 13.8 mph - N/A   Haze
1:55 PM 60.8 °F 53.6 °F 77% 30.12 in 5.0 mi ENE 12.7 mph - N/A   Haze
2:15 PM 60.8 °F 55.4 °F 82% 30.12 in 7.0 mi ENE 11.5 mph - N/A   Unknown
2:35 PM 62.6 °F 55.4 °F 77% 30.11 in 8.0 mi East 12.7 mph - N/A   Unknown
2:55 PM 62.6 °F 55.4 °F 77% 30.11 in 7.0 mi East 11.5 mph - N/A   Unknown
3:15 PM 62.6 °F 55.4 °F 77% 30.11 in 7.0 mi East 11.5 mph - N/A   Unknown
3:35 PM 62.6 °F 57.2 °F 82% 30.11 in 7.0 mi East 11.5 mph - N/A   Unknown
3:55 PM 62.6 °F 57.2 °F 82% 30.11 in 7.0 mi East 10.4 mph - N/A   Unknown
4:15 PM 62.6 °F 57.2 °F 82% 30.12 in 7.0 mi East 9.2 mph - N/A   Unknown
4:35 PM 60.8 °F 57.2 °F 88% 30.12 in 8.0 mi East 9.2 mph - N/A   Unknown
4:55 PM 60.8 °F 57.2 °F 88% 30.12 in 7.0 mi ENE 9.2 mph - N/A   Unknown
5:15 PM 60.8 °F 57.2 °F 88% 30.12 in 6.0 mi ENE 9.2 mph - N/A   Mist
5:35 PM 60.8 °F 57.2 °F 88% 30.12 in 7.0 mi ENE 9.2 mph - N/A   Unknown
5:55 PM 60.8 °F 57.2 °F 88% 30.12 in 7.0 mi ENE 10.4 mph - N/A   Unknown
6:15 PM 60.8 °F 57.2 °F 88% 30.12 in 7.0 mi ENE 10.4 mph - N/A   Unknown
6:35 PM 60.8 °F 57.2 °F 88% 30.13 in 9.0 mi ENE 9.2 mph - N/A   Unknown
6:55 PM 60.8 °F 57.2 °F 88% 30.13 in 10.0 mi ENE 8.1 mph - N/A   Unknown
7:15 PM 60.8 °F 57.2 °F 88% 30.13 in 9.0 mi ENE 6.9 mph - N/A   Unknown
7:35 PM 62.6 °F 57.2 °F 82% 30.14 in 10.0 mi ENE 6.9 mph - N/A   Unknown
7:55 PM 62.6 °F 57.2 °F 82% 30.13 in 10.0 mi ENE 8.1 mph - N/A   Unknown
8:15 PM 62.6 °F 57.2 °F 82% 30.13 in 10.0 mi ENE 9.2 mph - N/A   Unknown
8:35 PM 62.6 °F 57.2 °F 82% 30.14 in 10.0 mi East 8.1 mph - N/A   Unknown
8:55 PM 62.6 °F 57.2 °F 82% 30.12 in 10.0 mi East 9.2 mph - N/A   Unknown
9:15 PM 62.6 °F 59.0 °F 88% 30.12 in 10.0 mi East 8.1 mph - N/A   Unknown
9:35 PM 62.6 °F 59.0 °F 88% 30.13 in 9.0 mi ENE 8.1 mph - N/A   Unknown
9:55 PM 62.6 °F 59.0 °F 88% 30.13 in 8.0 mi NE 8.1 mph - N/A   Unknown
10:00 PM 62.6 °F 59.0 °F 88% 30.14 in 8.0 mi NE 9.2 mph - N/A   Unknown
10:55 PM 60.8 °F 59.0 °F 94% 30.14 in 7.0 mi NE 9.2 mph - N/A   Unknown
11:15 PM 60.8 °F 59.0 °F 94% 30.14 in 6.0 mi NE 10.4 mph - N/A   Mist
11:35 PM 60.8 °F 59.0 °F 94% 30.14 in 5.0 mi NE 11.5 mph - N/A   Mist
11:55 PM 60.8 °F 59.0 °F 94% 30.15 in 5.0 mi NNE 10.4 mph - N/A   Mist